Regional Weather Roundup
Issued by NWS

Home | Current Version | Previous Version | Graphics & Text | Print | Product List | Glossary On
Versions: 1 2 3 4 5 6 7 8 9 10 11 12 13 14 15 16 17 18 19 20 21 22 23 24 25 26 27 28 29 30 31 32 33 34 35 36 37 38 39 40 41 42 43 44 45 46 47 48 49 50
000
ASUS43 KTOP 102159
RWRKS

WEATHER ROUNDUP FOR KANSAS
NATIONAL WEATHER SERVICE GOODLAND KS
400 PM CST WED FEB 10 2016

NOTE:  "FAIR" INDICATES FEW OR NO CLOUDS BELOW 12,000 FEET WITH NO
SIGNIFICANT WEATHER AND/OR OBSTRUCTIONS TO VISIBILITY.

KSZ001>006-013>018-027>032-041>047-102300-
NORTHWEST KANSAS

CITY           SKY/WX    TMP DP  RH WIND       PRES   REMARKS
GOODLAND       SUNNY     59  30  33 NW9       30.02S
HAYS           SUNNY     63  28  27 NW20G29   29.94R
HILL CITY      SUNNY     56  33  42 W12G22    29.95R
RUSSELL        SUNNY     63  31  30 NW18      29.91R
$$

KSZ061>065-074>080-084>089-102300-
SOUTHWEST KANSAS

CITY           SKY/WX    TMP DP  RH WIND       PRES   REMARKS
DODGE CITY     SUNNY     73  17  12 NW17      29.97S
ELKHART          N/A     78  19  11 W13         N/A
GARDEN CITY    SUNNY     75  13   9 NW20G28   29.98F
GREAT BEND     SUNNY     66  28  24 NW18      29.92S
LIBERAL        SUNNY     79  19  11 N14       30.01F
$$

KSZ066>073-081>083-090>101-102300-
SOUTHEAST KANSAS

CITY           SKY/WX    TMP DP  RH WIND       PRES   REMARKS
CHANUTE        SUNNY     58  26  29 S14       29.92F
COFFEYVILLE    SUNNY     61  27  27 SW15      29.94F
HUTCHINSON     SUNNY     73  26  17 NW15      29.89S
MEDICINE LODGE   N/A     79  19  10 NW15G23   29.90F
NEWTON         SUNNY     64  30  27 W14       29.90S
PARSONS        SUNNY     59  27  29 SW13G22   29.94F
WICHITA INTL   SUNNY     69  32  25 SW9       29.89F
WICHITA JABRA  SUNNY     65  32  29 SW12      29.89F
WINFIELD       SUNNY     68  33  27 SW12      29.92F
$$

KSZ007>012-019>026-033>040-048>060-102>105-102300-
NORTHEAST KANSAS

CITY           SKY/WX    TMP DP  RH WIND       PRES   REMARKS
CONCORDIA      SUNNY     55  30  38 W16       29.87S
EMPORIA        SUNNY     63  27  25 W10       29.87F
LAWRENCE       SUNNY     54  24  31 S6        29.90R
MANHATTAN      SUNNY     62  30  29 W10       29.86S
OLATHE IND     SUNNY     50  23  34 SW8       29.91R
OLATHE EXE     SUNNY     47  20  34 S8        29.91R
SALINA         SUNNY     68  28  22 NW17      29.88S
TOPEKA BILLARD SUNNY     58  26  29 SW8       29.87S
TOPEKA FORBES  SUNNY     59  27  29 SW12      29.87S
$$



USA.gov is the U.S. government's official web portal to all federal, state and local government web resources and services.